DateTimeUTC,F1_A11,F1_S11,BsB_S11,BsG_S11,BsR_S11,BbsB_S11,BbsG_S11,BbsR_S11,BaB_A11,BaG_A11,BaR_A11,Tu_S11,T_S11,Uu_S11,U_S11,P_S11,T1_A11
2021-12-29T10:00:00Z,00000200,21000000,,,,,,,0000.03,0000.08,-000.07,19.3,26.2,,00.0,0650.0,31.1
2021-12-29T10:01:00Z,00000200,21000000,,,,,,,0000.02,-000.52,-000.12,19.2,26.2,,00.0,0650.0,31.1
2021-12-29T10:02:00Z,00000200,21000000,,,,,,,-000.55,0000.01,-000.37,19.2,26.2,,00.0,0650.0,31.1
2021-12-29T10:03:00Z,00000200,61000000,,,,,,,0000.38,-000.10,-000.09,19.2,26.2,,00.0,0650.0,31.1
2021-12-29T10:04:00Z,00000200,41000000,0001.04,0000.45,0000.59,0000.84,-000.09,0000.14,-000.11,0000.31,0000.21,19.2,26.0,,00.0,0650.8,31.1
2021-12-29T10:05:00Z,00000200,01000000,0000.67,0000.09,0000.26,0000.55,0000.09,0000.21,0000.78,0000.34,0000.20,19.2,25.9,,00.0,0650.8,31.1
2021-12-29T10:06:00Z,00000200,01000000,0000.05,0000.17,0000.24,0000.24,-000.13,0000.22,0000.22,0000.28,0000.41,19.3,25.9,,00.0,0650.8,31.1
2021-12-29T10:07:00Z,00000200,01000000,0000.82,0000.70,0000.28,0000.58,-000.23,-000.11,0000.34,0000.56,0000.56,19.3,25.9,,00.0,0650.8,31.1
2021-12-29T10:08:00Z,00000200,01000000,0000.67,0000.47,0000.51,0000.49,0000.10,0000.09,0000.62,0000.40,-000.00,19.3,25.9,,00.0,0650.8,31.1
2021-12-29T10:09:00Z,00000200,01000000,0000.70,0000.17,0000.26,0000.53,0000.11,0000.06,0000.14,0000.18,0000.25,19.4,25.9,,00.0,0650.8,31.1
2021-12-29T10:10:00Z,00000200,01000000,0000.71,0000.40,0000.08,0000.45,0000.16,-000.06,0000.08,0000.07,0000.17,19.4,25.9,,00.0,0650.8,31.1
2021-12-29T10:11:00Z,00000200,01000000,0000.34,0000.37,0000.56,-000.11,0000.02,0000.14,0000.41,0000.56,0000.31,19.4,25.9,,00.0,0650.8,31.1
2021-12-29T10:12:00Z,00000200,01000000,0000.44,0000.33,0000.26,0000.02,0000.33,-000.06,0000.16,0000.13,0000.10,19.5,25.9,,00.0,0650.8,31.1
2021-12-29T10:13:00Z,00000200,01000000,0001.13,0000.25,0000.51,0000.91,0000.33,0000.19,0000.44,0000.21,0000.03,19.5,25.9,,00.0,0650.8,31.1
2021-12-29T10:14:00Z,00000200,01000000,0001.03,0000.46,0000.45,0000.25,0000.45,0000.05,0000.13,0000.08,0000.29,19.5,25.9,,00.0,0650.8,31.1
2021-12-29T10:15:00Z,00000200,01000000,0000.37,-000.22,0000.04,0001.33,0000.14,-000.18,0000.14,0000.37,0000.32,19.6,25.9,,00.0,0650.8,31.1
2021-12-29T10:16:00Z,00000200,01000000,0000.42,0000.21,0000.21,0001.28,0000.26,-000.23,0000.44,0000.25,-000.22,19.6,25.9,,00.0,0650.8,31.1
2021-12-29T10:17:00Z,00000200,01000000,0000.72,0000.27,0000.43,0000.29,0000.21,-000.20,0000.04,0000.30,0000.37,19.6,26.0,,00.0,0650.8,31.1
2021-12-29T10:18:00Z,00000200,01000000,0000.28,0000.29,-000.14,0000.80,0000.16,-000.08,0000.21,-000.10,0000.05,19.6,26.0,,00.0,0650.8,31.1
2021-12-29T10:19:00Z,00000200,01000000,0001.23,0000.47,0000.24,0000.16,0000.04,-000.01,0000.13,0000.09,0000.02,19.6,26.0,,00.0,0650.8,31.1
2021-12-29T10:20:00Z,00000200,01000000,0000.94,0000.36,0000.25,0000.25,-000.01,0000.21,0000.59,0000.41,0000.35,19.6,26.0,,00.0,0650.8,31.1
2021-12-29T10:21:00Z,00000200,01000000,0000.28,0000.67,0000.02,0000.15,0000.12,-000.17,-000.02,0000.33,0000.39,19.6,26.0,,00.0,0650.8,31.1
2021-12-29T10:22:00Z,00000200,01000000,0000.26,-000.06,0000.35,-000.45,0000.06,0000.10,0000.29,0000.13,-000.18,19.6,26.0,,00.0,0650.8,31.1
2021-12-29T10:23:00Z,00000200,01000000,0000.77,0000.17,0000.35,0000.35,0000.14,0000.07,0000.67,0000.26,0000.46,19.6,26.0,,00.0,0650.8,31.1
2021-12-29T10:24:00Z,00000200,01000000,0001.37,0000.19,0000.19,0000.18,0000.02,0000.31,-000.13,0000.09,0000.08,19.6,26.0,,00.0,0650.8,31.1
2021-12-29T10:25:00Z,00000200,01000000,0001.34,0000.27,0000.37,0000.70,0000.10,-000.11,0000.53,0000.19,0000.47,19.7,26.0,,00.0,0650.8,31.1
2021-12-29T10:26:00Z,00000200,01000000,0000.56,0000.43,0000.25,0000.16,0000.17,-000.23,0000.19,0000.17,-000.25,19.7,26.0,,00.0,0650.8,31.2
2021-12-29T10:27:00Z,00000200,01000000,0000.86,0000.75,0000.36,0000.22,0000.16,0000.14,0000.08,0000.71,0000.29,19.7,26.0,,00.0,0650.8,31.1
2021-12-29T10:28:00Z,00000200,01000000,0001.07,0000.70,-000.06,0000.56,0000.04,0000.27,0000.39,-000.04,0000.14,19.7,26.0,,00.0,0650.8,31.1
2021-12-29T10:29:00Z,00000200,01000000,0000.50,0000.78,0000.04,-000.16,0000.11,0000.07,0000.01,0000.27,0000.07,19.7,26.0,,00.0,0650.8,31.2
2021-12-29T10:30:00Z,00000200,01000000,0000.36,0000.46,0000.23,-000.02,0000.19,-000.04,0000.74,0000.34,0000.60,19.7,26.0,,00.0,0650.7,31.2
2021-12-29T10:31:00Z,00000200,01000000,0000.95,0000.51,0000.31,-000.05,0000.19,-000.19,-000.07,0000.10,0000.29,19.6,26.0,,00.0,0650.7,31.1
2021-12-29T10:32:00Z,00000200,01000000,0001.00,0000.66,0000.38,0000.33,-000.08,0000.06,0000.28,0000.08,-000.13,19.5,26.0,,00.0,0650.7,31.1
2021-12-29T10:33:00Z,00000200,01000000,0000.88,0000.47,-000.12,0000.13,-000.08,-000.19,0000.11,0000.34,-000.23,19.4,25.9,,00.0,0650.6,31.1
2021-12-29T10:34:00Z,00000200,01000000,-000.05,0000.22,0000.17,0000.07,-000.06,0000.17,0000.25,0000.17,0000.22,19.3,25.9,,00.0,0650.6,31.1
2021-12-29T10:35:00Z,00000200,01000000,0000.87,0000.35,0000.08,0000.67,0000.17,-000.30,0000.43,0000.28,0000.47,19.4,25.9,,00.0,0650.6,31.1
2021-12-29T10:36:00Z,00000200,01000000,-000.29,0000.57,0000.07,0000.68,0000.11,0000.01,0000.18,0000.50,-000.02,19.4,25.9,,00.0,0650.6,31.1
2021-12-29T10:37:00Z,00000200,01000000,0000.12,0000.74,-000.23,0000.26,0000.19,0000.17,0000.38,0000.33,0000.23,19.4,25.9,,00.0,0650.6,31.1
2021-12-29T10:38:00Z,00000200,01000000,0000.64,0000.30,0000.20,0000.66,0000.08,-000.32,0000.37,0000.36,0000.10,19.4,25.9,,00.0,0650.6,31.1
2021-12-29T10:39:00Z,00000200,01000000,0000.81,0000.11,0000.41,0000.03,-000.03,0000.14,-000.15,-000.18,0000.06,19.5,25.9,,00.0,0650.6,31.1
2021-12-29T10:40:00Z,00000200,01000000,0000.75,0000.47,0000.17,0000.17,0000.22,-000.27,0000.12,0000.06,0000.00,19.5,25.9,,00.0,0650.6,31.1
2021-12-29T10:41:00Z,00000200,01000000,0001.13,0000.40,-000.17,0000.58,0000.16,0000.09,-000.24,-000.28,0000.03,19.5,25.9,,00.0,0650.6,31.1
2021-12-29T10:42:00Z,00000200,01000000,0000.72,0000.40,0000.42,-000.55,-000.10,-000.02,0000.67,0000.13,0000.09,19.4,25.9,,00.0,0650.6,31.1
2021-12-29T10:43:00Z,00000200,01000000,0001.18,0000.11,0000.50,0000.20,-000.01,0000.09,0000.16,0000.34,0000.50,19.3,25.9,,00.0,0650.6,31.1
2021-12-29T10:44:00Z,00000200,01000000,0000.72,0000.28,0000.43,-000.56,0000.10,0000.25,-000.04,0000.03,-000.26,19.3,25.9,,00.0,0650.5,31.1
2021-12-29T10:45:00Z,00000200,01000000,0000.30,0000.21,0000.56,0000.19,0000.13,0000.18,0000.11,0000.19,0000.27,19.2,25.8,,00.0,0650.5,31.0
2021-12-29T10:46:00Z,00000200,01000000,0000.42,0000.14,0000.16,-000.02,0000.01,0000.03,0000.38,-000.07,-000.13,19.1,25.7,,00.0,0650.5,31.0
2021-12-29T10:47:00Z,00000200,01000000,0000.75,0000.32,0000.51,0000.21,0000.18,-000.09,-000.03,-000.04,0000.40,19.0,25.7,,00.0,0650.5,31.0
2021-12-29T10:48:00Z,00000200,01000000,0000.34,0000.55,0000.24,0000.53,0000.13,-000.22,-000.26,-000.09,-000.83,18.9,25.6,,00.0,0650.5,31.0
2021-12-29T10:49:00Z,00000200,01000000,0001.48,0000.48,-000.12,0000.20,0000.36,0000.01,0000.18,0000.28,0000.69,18.9,25.6,,00.0,0650.5,31.0
2021-12-29T10:50:00Z,00000200,01000000,0000.25,0000.35,0000.49,0000.35,0000.02,0000.03,-000.11,0000.14,-000.19,18.9,25.5,,00.0,0650.5,31.0
2021-12-29T10:51:00Z,00000200,01000000,0000.69,0000.33,0000.24,0000.41,0000.26,-000.04,0000.57,0000.38,0000.54,18.9,25.5,,00.0,0650.5,31.0
2021-12-29T10:52:00Z,00000200,01000000,0000.07,0000.64,0000.22,-000.41,0000.20,-000.18,0000.30,0000.17,-000.04,18.9,25.5,,00.0,0650.5,31.0
2021-12-29T10:53:00Z,00000200,01000000,0000.67,0000.52,0000.63,-000.20,0000.15,0000.03,0000.20,0000.20,0000.08,18.9,25.5,,00.0,0650.5,31.0
2021-12-29T10:54:00Z,00000200,01000000,0001.32,0000.56,0000.17,0000.59,0000.46,0000.16,0000.20,0000.24,-000.03,19.0,25.5,,00.0,0650.5,31.1
2021-12-29T10:55:00Z,00000200,01000000,0000.57,0000.65,-000.05,-000.27,0000.08,-000.03,0000.34,0000.27,0000.48,19.0,25.5,,00.0,0650.5,31.1
2021-12-29T10:56:00Z,00000200,01000000,0000.44,0000.67,0000.14,0000.96,0000.56,-000.01,0000.39,0000.03,0000.05,19.1,25.5,,00.0,0650.6,31.1
2021-12-29T10:57:00Z,00000200,41000000,,,,,,,-000.03,0000.27,0000.29,19.2,25.6,,00.0,0650.6,31.1
2021-12-29T10:58:00Z,00000200,61000000,,,,,,,0000.17,-000.03,0000.17,18.8,25.7,,00.0,0649.6,31.1
2021-12-29T10:59:00Z,00000200,21000000,,,,,,,-000.15,0000.07,-000.01,18.8,25.8,,00.0,0649.6,31.1
